Skip Navigation Links
NOAA logo - Click to go to the NOAA homepage
NOAA's National Weather Service
Alaska Aviation Weather Unit
  NWS logo - Click to go to the NWS homepage
Left Navbar Graphic     00 AKDT = 08 GMT

   
NOAA is celebrating 200 years of science, service, and stewardship. Visit the NOAA 200th celebration Web site to learn more.
USA.gov is the U.S. Government's official Web portal to all Federal, state and local government Web resources and services.
Facebook
NWS on Facebook

Important Change Regarding the AAWU Web Presence

 

Over the last several months, the AAWU has been working to navigate its webpages to a nationally supported server. Security, as well as other needs, have necessitated the change.  We have been given an extension for the site changeover while we diligently work at addressing feedback received. As of July 14, 2017, aawu.arh.noaa.gov will be discontinued. The new AAWU web address is weather.gov/aawu. It is now live and will run in-parallel with the old site until it is discontinued on July 14, 2017. Please continue to send any feedback or questions regarding the new webpages to nws.ar.aawu.webauthors@noaa.gov.  Thank you for your patience during this time of transition.
AAWU Home :: Display TAF Add Bookmark
TAF PAEN 240541Z 2406/2506  03013KT P6SM VCSH FEW040 OVC060
     FM241000 03010KT 6SM -SHRA BKN035 OVC050
     FM241700 22008KT P6SM SCT030 BKN050=

4448
FTAK31 PANC 240541
TAFAVD
TAF

METAR PAEN 240253Z 03010KT 10SM FEW070 BKN110 11/10 A2942= METAR PAEN 240353Z 04009KT 10SM BKN110 11/09 A2941= METAR PAEN 240453Z 03014KT 10SM BKN075 BKN090 OVC110 11/09 A2941= METAR PAEN 240553Z 03014KT 10SM OVC070 11/09 A2940= METAR PAEN 240653Z 02013KT 10SM -RA OVC070 11/10 A2940= METAR PAEN 240753Z 01009KT 10SM BKN070 OVC080 11/10 A2940=
 Alaska TAF Map

NOAA's National Weather Service
Alaska Aviation Weather Unit
6930 Sand Lake Road
Anchorage, AK 99502-1845
Disclaimer
Credits
Glossary
Privacy Policy
About Us
Career Opportunities
Contact AAWU Internet Services Site last modified: April, 17th 2012